Date String (YYYY-MM-DD hh:mm:ss) UTC,Instrument flags,Ambient pressure (hPa),Sample flow (lpm),Bypass flow (lpm),Sample temperature (°C),Ambient temperature (°C),ASC tube jacket temperature (°C),LED temperature (°C),Box temperature (°C),Sample RH (%),Span deviation,Mass concentration (μg/m³),Mass concentration (μg/m³),Mass concentration (μg/m³)
DateTimeUTC,F1_M11,P_M11,Q1_M11,Q2_M11,T1_M11,T2_M11,T3_M11,T4_M11,T5_M11,U1_M11,ZSPAN_M11,X2_M11,X0_M11,X1_M11
2021-12-24 14:00:00,,0810.2,5.00,0.00,23.3,22.4,00.0,32.6,24.9,21.1,0000.0,0001.00,0003.69,0000.17
2021-12-24 14:01:00,,0810.2,5.00,0.00,23.3,22.4,00.0,32.6,24.9,21.1,0000.0,0000.99,0004.66,0000.18
2021-12-24 14:02:00,,0810.3,4.99,0.00,23.3,22.5,00.0,32.5,24.9,21.1,0000.0,0001.02,0006.31,0000.18
2021-12-24 14:03:00,,0810.2,5.00,0.00,23.3,22.5,00.0,32.5,24.9,21.1,0000.0,0001.05,0007.22,0000.18
2021-12-24 14:04:00,,0810.2,5.01,0.00,23.3,22.4,00.0,32.5,24.9,21.1,0000.0,0001.17,0007.45,0000.19
2021-12-24 14:05:00,,0810.3,4.99,0.00,23.3,22.4,00.0,32.5,24.9,21.1,0000.0,0001.14,0007.09,0000.18
2021-12-24 14:06:00,,0810.3,5.00,0.00,23.3,22.4,00.0,32.5,24.9,21.1,0000.0,0001.09,0006.92,0000.18
2021-12-24 14:07:00,,0810.3,5.01,0.00,23.2,22.4,00.0,32.4,24.9,21.2,0000.0,0001.08,0007.05,0000.18
2021-12-24 14:08:00,,0810.3,5.00,0.00,23.2,22.4,00.0,32.4,24.8,21.2,0000.0,0001.04,0007.50,0000.18
2021-12-24 14:09:00,,0810.2,4.99,0.00,23.2,22.3,00.0,32.4,24.8,21.2,0000.0,0001.03,0007.85,0000.18
2021-12-24 14:10:00,,0810.2,5.01,0.00,23.2,22.3,00.0,32.4,24.8,21.3,0000.0,0000.96,0008.11,0000.18
2021-12-24 14:11:00,,0810.2,5.00,0.00,23.1,22.3,00.0,32.4,24.8,21.3,0000.0,0000.90,0008.22,0000.18
2021-12-24 14:12:00,,0810.2,5.00,0.00,23.1,22.2,00.0,32.3,24.7,21.3,0000.0,0000.85,0007.40,0000.17
2021-12-24 14:13:00,,0810.2,5.00,0.00,23.1,22.2,00.0,32.3,24.7,21.3,0000.0,0000.81,0005.89,0000.16
2021-12-24 14:14:00,,0810.2,5.01,0.00,23.1,22.1,00.0,32.3,24.6,21.3,0000.0,0000.75,0005.86,0000.16
2021-12-24 14:15:00,,0810.1,4.98,0.00,23.0,22.1,00.0,32.3,24.6,21.4,0000.0,0000.66,0007.39,0000.15
2021-12-24 14:16:00,,0810.1,5.01,0.00,23.0,22.1,00.0,32.2,24.6,21.4,0000.0,0000.69,0007.41,0000.15
2021-12-24 14:17:00,,0810.2,5.00,0.00,23.0,22.1,00.0,32.2,24.6,21.5,0000.0,0000.72,0007.42,0000.15
2021-12-24 14:18:00,,0810.2,4.99,0.00,23.0,22.1,00.0,32.2,24.6,21.5,0000.0,0000.70,0007.45,0000.15
2021-12-24 14:19:00,,0810.2,5.02,0.00,23.0,22.1,00.0,32.2,24.6,21.5,0000.0,0000.65,0007.77,0000.15
2021-12-24 14:20:00,,0810.2,5.01,0.00,22.9,22.1,00.0,32.2,24.6,21.5,0000.0,0000.58,0007.60,0000.14
2021-12-24 14:21:00,,0810.2,4.99,0.00,22.9,22.1,00.0,32.1,24.6,21.5,0000.0,0000.53,0006.64,0000.14
2021-12-24 14:22:00,,0810.2,5.00,0.00,22.9,22.1,00.0,32.1,24.5,21.6,0000.0,0000.54,0007.35,0000.14
2021-12-24 14:23:00,,0810.2,5.01,0.00,22.9,22.1,00.0,32.1,24.5,21.6,0000.0,0000.55,0007.59,0000.14
2021-12-24 14:24:00,,0810.3,4.99,0.00,22.9,22.1,00.0,32.1,24.5,21.7,0000.0,0000.58,0007.64,0000.15
2021-12-24 14:25:00,,0810.3,5.02,0.00,22.9,22.0,00.0,32.1,24.4,21.7,0000.0,0000.60,0007.53,0000.15
2021-12-24 14:26:00,,0810.3,4.99,0.00,22.8,22.0,00.0,32.0,24.4,21.7,0000.0,0000.62,0005.15,0000.15
2021-12-24 14:27:00,,0810.3,5.00,0.00,22.8,22.0,00.0,32.0,24.3,21.8,0000.0,0000.61,0004.98,0000.14
2021-12-24 14:28:00,,0810.3,4.99,0.00,22.8,21.9,00.0,32.0,24.3,21.8,0000.0,0000.62,0005.16,0000.14
2021-12-24 14:29:00,,0810.3,4.99,0.00,22.7,21.9,00.0,32.0,24.3,21.9,0000.0,0000.63,0005.05,0000.14
2021-12-24 14:30:00,,0810.3,5.02,0.00,22.7,21.9,00.0,31.9,24.3,21.9,0000.0,0000.65,0003.72,0000.15
2021-12-24 14:31:00,,0810.2,4.99,0.00,22.7,21.9,00.0,31.9,24.3,21.9,0000.0,0000.65,0003.52,0000.15
2021-12-24 14:32:00,,0810.2,5.01,0.00,22.7,21.8,00.0,31.9,24.3,21.9,0000.0,0000.64,0003.46,0000.15
2021-12-24 14:33:00,,0810.2,4.98,0.00,22.7,21.9,00.0,31.9,24.3,21.9,0000.0,0000.62,0002.30,0000.15
2021-12-24 14:34:00,,0810.2,5.00,0.00,22.6,21.9,00.0,31.9,24.2,21.9,0000.0,0000.60,0001.94,0000.15
2021-12-24 14:35:00,,0810.2,5.01,0.00,22.6,21.9,00.0,31.9,24.2,22.0,0000.0,0000.60,0003.60,0000.14
2021-12-24 14:36:00,,0810.2,5.01,0.00,22.6,21.9,00.0,31.8,24.2,22.0,0000.0,0000.60,0003.79,0000.14
2021-12-24 14:37:00,,0810.3,4.99,0.00,22.6,21.9,00.0,31.8,24.3,22.1,0000.0,0000.59,0004.03,0000.15
2021-12-24 14:38:00,,0810.3,5.00,0.00,22.6,21.9,00.0,31.8,24.2,22.2,0000.0,0000.58,0003.97,0000.15
2021-12-24 14:39:00,,0810.4,5.00,0.00,22.6,21.9,00.0,31.8,24.2,22.2,0000.0,0000.56,0003.71,0000.16
2021-12-24 14:40:00,,0810.5,5.00,0.00,22.6,21.8,00.0,31.8,24.2,22.2,0000.0,0000.62,0004.07,0000.17
2021-12-24 14:41:00,,0810.5,4.98,0.00,22.6,21.8,00.0,31.8,24.2,22.2,0000.0,0000.69,0005.38,0000.21
2021-12-24 14:42:00,,0810.4,5.00,0.00,22.6,21.8,00.0,31.7,24.2,22.2,0000.0,0000.74,0007.28,0000.25
2021-12-24 14:43:00,,0810.4,5.00,0.00,22.5,21.8,00.0,31.7,24.2,22.2,0000.0,0000.81,0008.57,0000.28
2021-12-24 14:44:00,,0810.3,5.00,0.00,22.5,21.8,00.0,31.7,24.2,22.2,0000.0,0000.88,0009.60,0000.31
2021-12-24 14:45:00,,0810.3,5.01,0.00,22.5,21.8,00.0,31.7,24.2,22.3,0000.0,0000.96,0009.73,0000.35
2021-12-24 14:46:00,,0810.3,4.99,0.00,22.5,21.8,00.0,31.7,24.1,22.3,0000.0,0001.00,0009.09,0000.39
2021-12-24 14:47:00,,0810.3,5.01,0.00,22.5,21.8,00.0,31.7,24.1,22.2,0000.0,0001.03,0009.22,0000.43
2021-12-24 14:48:00,,0810.3,5.00,0.00,22.5,21.8,00.0,31.7,24.1,22.3,0000.0,0001.05,0009.08,0000.45
2021-12-24 14:49:00,,0810.4,5.01,0.00,22.5,21.8,00.0,31.7,24.1,22.3,0000.0,0001.06,0009.07,0000.47
2021-12-24 14:50:00,,0810.4,5.00,0.00,22.5,21.8,00.0,31.6,24.1,22.2,0000.0,0001.06,0009.70,0000.48
2021-12-24 14:51:00,,0810.5,4.99,0.00,22.5,21.8,00.0,31.6,24.1,22.2,0000.0,0001.02,0009.62,0000.49
2021-12-24 14:52:00,,0810.5,5.02,0.00,22.5,21.8,00.0,31.6,24.2,22.2,0000.0,0000.98,0008.97,0000.48
2021-12-24 14:53:00,,0810.5,4.99,0.00,22.5,21.8,00.0,31.6,24.1,22.2,0000.0,0000.95,0008.40,0000.45
2021-12-24 14:54:00,,0810.5,5.01,0.00,22.5,21.8,00.0,31.6,24.1,22.1,0000.0,0000.91,0007.28,0000.43
2021-12-24 14:55:00,,0810.5,5.00,0.00,22.4,21.8,00.0,31.6,24.1,22.1,0000.0,0000.88,0005.59,0000.41
2021-12-24 14:56:00,,0810.5,4.99,0.00,22.4,21.7,00.0,31.6,24.1,22.1,0000.0,0000.80,0005.21,0000.37
2021-12-24 14:57:00,,0810.5,5.00,0.00,22.4,21.7,00.0,31.6,24.1,22.1,0000.0,0000.77,0005.08,0000.34
2021-12-24 14:58:00,,0810.4,5.01,0.00,22.4,21.7,00.0,31.6,24.1,22.1,0000.0,0000.74,0004.67,0000.30
2021-12-24 14:59:00,,0810.4,5.01,0.00,22.4,21.7,00.0,31.6,24.0,22.1,0000.0,0000.71,0004.63,0000.29
